Location: Bridgewater
(44.3670°N, 64.5170°W)
Time: 07:34:10
(UTC-04:00)

Amateur Radio Satellites - All Passes

Search period start: 06 February 2016 07:04
Search period end: 07 February 2016 07:04
Location: Bridgewater, 44.3670°N, 64.5170°W

Satellite Date Start Highest point End Downlink Frequencies (MHz)
Time Altitude Azimuth
CUTE-I 06 Feb 07:13:46 07:19:05 61° 289° (WNW) 07:24:22 437.470
PRISM 06 Feb 07:14:10 07:18:18 73° 74° (ENE) 07:22:30 437.425
AO-7 06 Feb 07:20:56 07:24:38 14° 320° (NW) 07:28:20 29.400- 29.500
Cosmos 2504 06 Feb 07:22:27 07:29:50 31° 294° (WNW) 07:37:30 435.465 / 435.565
LilacSat-2 06 Feb 07:23:46 07:27:13 34° 289° (WNW) 07:30:39 437.200
Cubesat XI-IV 06 Feb 07:26:13 07:31:23 48° 291° (WNW) 07:36:32 437.490
STRAND 1 06 Feb 07:29:41 07:34:10 31° 264° (W) 07:38:41 437.568
CUTE 1.7 + AOD 2 06 Feb 07:31:32 07:33:43 14° 90° (E) 07:35:55 437.475
PHONESAT 2.4 06 Feb 07:33:25 07:35:47 19° 203° (SSW) 07:38:09 2401.200-2431.200
CINEMA 3 06 Feb 07:37:44 07:39:27 12° 89° (E) 07:41:09 145.822/145.860
GOMX 1 06 Feb 07:44:06 07:48:44 87° 99° (E) 07:53:03 467.674
SEEDS 06 Feb 07:45:26 07:47:49 15° 90° (E) 07:50:12 437.485
DOVE 4 06 Feb 07:47:03 07:51:16 46° 98° (E) 07:55:17 437.250
BRITE-PL 06 Feb 07:54:18 07:58:58 40° 291° (WNW) 08:03:16 437.365/2234.400
O/OREOS (USA 219) 06 Feb 07:59:55 08:02:47 17° 100° (E) 08:05:41 437.305
AAUSAT CUBESAT 2 06 Feb 08:11:39 08:14:25 17° 92° (E) 08:17:12 437.432
CUBEBUG 2 06 Feb 08:14:16 08:15:25 11° 89° (E) 08:16:34 437.445
CANX-2 06 Feb 08:14:20 08:18:27 44° 98° (E) 08:22:33 2200.000
HO-68 06 Feb 08:24:06 08:31:10 53° 101° (E) 08:38:09 435.675
UWE-3 06 Feb 08:24:47 08:25:19 10° 89° (E) 08:25:49 435.000/436.395/437.385
SO-50 06 Feb 08:25:40 08:28:54 17° 327° (NNW) 08:32:08 436.795
GONETS M04 06 Feb 08:26:00 08:33:11 30° 82° (E) 08:40:23
UNISAT 6 06 Feb 08:27:35 08:29:10 12° 60° (ENE) 08:30:45 437.425
Oscar 11 06 Feb 08:41:37 08:44:15 16° 91° (E) 08:46:54 145.826/435.025
Cosmos 2499 06 Feb 08:51:52 08:57:31 19° 76° (ENE) 09:03:14 435.465 / 435.565
PRISM 06 Feb 08:53:32 08:54:09 10° 271° (W) 08:54:45 437.425
CUTE 1.7 + AOD 2 06 Feb 09:05:44 09:09:57 58° 287° (WNW) 09:14:09 437.475
ANTELSAT 06 Feb 09:10:07 09:13:56 31° 68° (ENE) 09:17:42 437.575/2403.000
CINEMA 3 06 Feb 09:12:55 09:17:02 59° 286° (WNW) 09:21:06 145.822/145.860
COMPASS 1 06 Feb 09:13:09 09:17:24 84° 284° (WNW) 09:21:37 437.405
TIGRISAT 06 Feb 09:18:20 09:22:17 35° 70° (ENE) 09:26:12 435.000
SEEDS 06 Feb 09:19:43 09:23:52 53° 287° (WNW) 09:28:00 437.485
GOMX 1 06 Feb 09:24:38 09:26:01 11° 303° (WNW) 09:27:23 467.674
DOVE 4 06 Feb 09:25:44 09:28:37 18° 297° (WNW) 09:31:25 437.250
ZACube-1 06 Feb 09:25:49 09:29:40 34° 97° (E) 09:33:32 437.345
POLYITAN 1 06 Feb 09:30:16 09:32:25 14° 62° (ENE) 09:34:35 437.675
QB50P2 06 Feb 09:30:58 09:33:17 14° 62° (ENE) 09:35:35 145.880/145.840
FUNcube-1 06 Feb 09:37:02 09:41:02 43° 99° (E) 09:45:04 145.935
O/OREOS (USA 219) 06 Feb 09:37:23 09:41:45 51° 298° (WNW) 09:46:10 437.305
AAUSAT CUBESAT 2 06 Feb 09:46:09 09:50:10 44° 288° (WNW) 09:54:10 437.432
CUBEBUG 2 06 Feb 09:48:23 09:52:31 67° 285° (WNW) 09:56:41 437.445
CANX-2 06 Feb 09:51:00 09:54:01 19° 295° (WNW) 09:57:02 2200.000
BUGSAT 1 06 Feb 09:57:12 09:59:12 13° 62° (ENE) 10:01:12 437.445
UWE-3 06 Feb 09:58:06 10:02:17 73° 284° (WNW) 10:06:29 435.000/436.395/437.385
DELFI C3 06 Feb 09:58:07 10:02:07 56° 100° (E) 10:06:05 145.870
POPSAT HIP 1 06 Feb 10:00:23 10:03:56 26° 67° (ENE) 10:07:29 437.405
UNISAT 6 06 Feb 10:00:57 10:05:19 78° 258° (WSW) 10:09:37 437.425
AO-85 06 Feb 10:06:01 10:07:18 11° 104° (ESE) 10:08:36 145.980
NANOSAT C BR1 06 Feb 10:07:34 10:11:17 30° 68° (ENE) 10:15:00 145.865
DUCHIFAT 1 06 Feb 10:10:52 10:14:36 31° 69° (ENE) 10:18:21 145.980
HO-68 06 Feb 10:12:17 10:18:36 34° 300° (WNW) 10:24:53 435.675
QB50P1 06 Feb 10:13:02 10:16:55 36° 70° (ENE) 10:20:49 145.935-145.965
Oscar 11 06 Feb 10:16:28 10:20:42 52° 288° (WNW) 10:24:55 145.826/435.025
GONETS M04 06 Feb 10:20:49 10:29:23 63° 283° (WNW) 10:38:03
HUMSAT D 06 Feb 10:20:49 10:24:46 41° 98° (E) 10:28:43 437.325/437.525
RS-15 06 Feb 10:24:51 10:31:02 17° 95° (E) 10:37:20 29.354- 29.394
AIST 1 06 Feb 10:32:02 10:35:33 24° 88° (E) 10:39:06
Cosmos 2499 06 Feb 10:40:38 10:49:18 86° 97° (E) 10:58:15 435.465 / 435.565
PCSat 06 Feb 10:41:10 10:44:17 16° 104° (ESE) 10:47:24 145.827
ANTELSAT 06 Feb 10:47:01 10:50:40 26° 265° (W) 10:54:16 437.575/2403.000
TIGRISAT 06 Feb 10:55:40 10:59:05 22° 266° (W) 11:02:28 435.000
50 SAT 06 Feb 11:00:41 11:03:52 25° 96° (E) 11:07:04 437.505
VELOX 1 06 Feb 11:01:03 11:04:34 22° 94° (E) 11:08:02 145.980
ZACube-1 06 Feb 11:02:32 11:05:47 22° 294° (WNW) 11:09:04 437.345
POLYITAN 1 06 Feb 11:03:32 11:07:45 63° 258° (WSW) 11:11:58 437.675
QB50P2 06 Feb 11:04:26 11:08:38 60° 260° (W) 11:12:51 145.880/145.840
JAS-2 06 Feb 11:08:18 11:12:13 15° 53° (NE) 11:15:58 435.910
FUNcube-1 06 Feb 11:14:08 11:17:00 18° 295° (WNW) 11:19:53 145.935
AISAT 06 Feb 11:16:34 11:20:37 34° 97° (E) 11:24:36 437.250
ESTCUBE 1 06 Feb 11:21:39 11:25:59 42° 98° (E) 11:30:17 437.505/2401.250
CUSAT 1 06 Feb 11:28:04 11:30:15 12° 50° (NE) 11:32:17 437.405
BUGSAT 1 06 Feb 11:29:53 11:34:04 66° 258° (WSW) 11:38:16 437.445
Oscar 19 06 Feb 11:31:54 11:35:26 19° 60° (ENE) 11:38:57 437.125/150
DELFI C3 06 Feb 11:34:28 11:36:35 14° 297° (WNW) 11:38:42 145.870
POPSAT HIP 1 06 Feb 11:35:55 11:39:38 29° 264° (W) 11:43:23 437.405
AO-85 06 Feb 11:41:31 11:46:51 72° 121° (ESE) 11:52:22 145.980
NANOSAT C BR1 06 Feb 11:43:30 11:47:02 25° 265° (W) 11:50:34 145.865
DUCHIFAT 1 06 Feb 11:46:53 11:50:21 24° 265° (W) 11:53:49 145.980
CUBEBUG 1 06 Feb 11:48:13 11:52:33 59° 100° (E) 11:56:51 437.445
QB50P1 06 Feb 11:49:31 11:52:49 21° 266° (W) 11:56:06 145.935-145.965
UKube-1 06 Feb 11:52:15 11:56:35 71° 102° (ESE) 12:00:54 .
DX 1 06 Feb 11:56:52 12:01:16 87° 289° (WNW) 12:05:37 434.975-435.025
HUMSAT D 06 Feb 11:57:13 12:00:09 19° 295° (WNW) 12:03:04 437.325/437.525
SPROUT 06 Feb 12:08:49 12:12:46 35° 97° (E) 12:16:41 437.525
AIST 1 06 Feb 12:09:03 12:13:00 32° 286° (WNW) 12:16:59
PCSat 06 Feb 12:21:33 12:26:59 79° 303° (WNW) 12:32:27 145.827
GONETS M04 06 Feb 12:24:17 12:28:20 14° 307° (NW) 12:32:25
RS-15 06 Feb 12:30:02 12:41:03 72° 118° (ESE) 12:52:42 29.354- 29.394
ITAMSAT 1 06 Feb 12:32:38 12:35:20 14° 57° (ENE) 12:38:04 435.822/435.867
TISAT 1 06 Feb 12:33:57 12:37:25 25° 95° (E) 12:40:52 437.305
50 SAT 06 Feb 12:34:44 12:37:51 24° 292° (WNW) 12:40:57 437.505
Cosmos 2499 06 Feb 12:36:56 12:43:37 24° 299° (WNW) 12:50:27 435.465 / 435.565
VELOX 1 06 Feb 12:37:04 12:41:09 37° 291° (WNW) 12:45:12 145.980
AO-7 06 Feb 12:45:45 12:50:31 17° 43° (NE) 12:55:16 29.400- 29.500
JAS-2 06 Feb 12:48:28 12:56:07 66° 71° (ENE) 13:03:11 435.910
AISAT 06 Feb 12:53:20 12:56:58 25° 294° (WNW) 13:00:33 437.250
ESTCUBE 1 06 Feb 12:59:03 13:02:32 22° 296° (WNW) 13:06:01 437.505/2401.250
DANDE 06 Feb 13:06:21 13:13:39 42° 68° (ENE) 13:19:28 436.750
Gurwin Techsat 1B 06 Feb 13:07:29 13:12:34 49° 69° (ENE) 13:17:40 435.225
CUSAT 1 06 Feb 13:07:48 13:14:26 65° 75° (ENE) 13:19:25 437.405
YUBILEINY 06 Feb 13:08:58 13:15:15 21° 59° (ENE) 13:21:30 435.215
Oscar 19 06 Feb 13:09:06 13:14:15 65° 258° (WSW) 13:19:26 437.125/150
AO-85 06 Feb 13:23:27 13:27:57 26° 321° (NW) 13:32:30 145.980
CUBEBUG 1 06 Feb 13:25:49 13:28:23 15° 298° (WNW) 13:30:56 437.445
UKube-1 06 Feb 13:30:05 13:32:05 13° 300° (WNW) 13:34:05 .
SO-50 06 Feb 13:32:51 13:36:56 26° 40° (NE) 13:40:55 436.795
DX 1 06 Feb 13:36:03 13:36:44 10° 302° (WNW) 13:37:26 434.975-435.025
SPROUT 06 Feb 13:45:14 13:48:34 22° 294° (WNW) 13:51:53 437.525
SWISSCUBE 06 Feb 13:50:06 13:54:27 33° 97° (E) 13:58:47 437.505
PCSat 06 Feb 14:07:42 14:11:17 17° 323° (NW) 14:14:52 145.827
ITAMSAT 1 06 Feb 14:08:54 14:14:06 87° 260° (W) 14:19:20 435.822/435.867
TISAT 1 06 Feb 14:09:27 14:13:06 30° 292° (WNW) 14:16:45 437.305
ITUPSAT 1 06 Feb 14:24:29 14:29:18 65° 102° (ESE) 14:34:04 437.325
AO-7 06 Feb 14:33:28 14:41:40 62° 65° (ENE) 14:49:54 29.400- 29.500
HORYU 2 06 Feb 14:34:58 14:37:35 16° 61° (ENE) 14:40:11 437.375
JAS-2 06 Feb 14:35:04 14:41:28 28° 268° (W) 14:47:33 435.910
BEESAT 06 Feb 14:35:39 14:40:29 84° 104° (ESE) 14:45:17 436.000
M-CUBED/EXP-1 PRIME 06 Feb 14:38:39 14:42:05 35° 66° (ENE) 14:45:18 437.505
RS-15 06 Feb 14:43:43 14:54:24 44° 325° (NW) 15:05:40 29.354- 29.394
Gurwin Techsat 1B 06 Feb 14:48:35 14:52:46 23° 267° (W) 14:56:58 435.225
DANDE 06 Feb 14:49:39 14:56:32 38° 273° (W) 15:02:02 436.750
CUSAT 1 06 Feb 14:51:31 14:55:41 19° 281° (W) 14:59:15 437.405
AUBIESAT-1 06 Feb 14:51:59 14:55:29 41° 67° (ENE) 14:58:47 437.475
YUBILEINY 06 Feb 15:04:32 15:13:28 87° 83° (E) 15:22:18 435.215
MOZHAYETS 4 06 Feb 15:09:30 15:11:05 12° 88° (E) 15:12:39
Cosmos 2491 06 Feb 15:10:12 15:18:24 48° 88° (E) 15:26:37 435.465 / 435.565
SO-50 06 Feb 15:13:02 15:17:45 54° 240° (WSW) 15:22:17 436.795
Cosmos 2504 06 Feb 15:18:54 15:26:13 28° 64° (ENE) 15:33:08 435.465 / 435.565
SWISSCUBE 06 Feb 15:28:01 15:32:10 30° 294° (WNW) 15:36:18 437.505
STARS 06 Feb 15:36:36 15:40:25 29° 96° (E) 15:44:12 437.465
KKS-1 06 Feb 15:42:41 15:47:06 61° 101° (ESE) 15:51:28 437.445
ITAMSAT 1 06 Feb 15:52:53 15:54:19 11° 273° (W) 15:55:45 435.822/435.867
ITUPSAT 1 06 Feb 16:03:35 16:06:38 17° 299° (WNW) 16:09:40 437.325
HORYU 2 06 Feb 16:09:20 16:13:41 60° 258° (WSW) 16:18:05 437.375
M-CUBED/EXP-1 PRIME 06 Feb 16:14:20 16:16:49 17° 260° (W) 16:19:12 437.505
BEESAT 06 Feb 16:15:22 16:17:35 13° 302° (WNW) 16:19:49 436.000
AO-7 06 Feb 16:27:37 16:34:53 32° 264° (W) 16:42:13 29.400- 29.500
AUBIESAT-1 06 Feb 16:28:10 16:30:12 14° 261° (W) 16:32:13 437.475
LilacSat-2 06 Feb 16:35:07 16:36:46 13° 63° (ENE) 16:38:25 437.200
MOZHAYETS 4 06 Feb 16:44:10 16:48:49 78° 284° (WNW) 16:53:27
ISS 06 Feb 16:47:37 16:50:04 20° 135° (SE) 16:52:30 145.825
CUTE-I 06 Feb 16:57:57 17:02:46 36° 67° (ENE) 17:07:37 437.470
RS-15 06 Feb 17:01:24 17:10:59 28° 359° (N) 17:20:56 29.354- 29.394
YUBILEINY 06 Feb 17:03:03 17:09:02 21° 283° (WNW) 17:15:00 435.215
Cosmos 2491 06 Feb 17:07:19 17:15:22 41° 289° (WNW) 17:23:29 435.465 / 435.565
Cubesat XI-IV 06 Feb 17:10:09 17:15:11 46° 69° (ENE) 17:20:17 437.490
Cosmos 2504 06 Feb 17:11:44 17:20:26 71° 267° (W) 17:28:35 435.465 / 435.565
STARS 06 Feb 17:12:59 17:16:44 28° 293° (WNW) 17:20:28 437.465
HO-68 06 Feb 17:13:46 17:15:02 11° 43° (NE) 17:16:17 435.675
CUBESAT XI-V 06 Feb 17:14:38 17:18:30 24° 93° (E) 17:22:20 437.345
GOMX 1 06 Feb 17:17:05 17:20:25 17° 61° (ENE) 17:23:40 467.674
KKS-1 06 Feb 17:20:36 17:23:12 15° 299° (WNW) 17:25:46 437.445
BRITE-PL 06 Feb 17:27:13 17:32:23 37° 68° (ENE) 17:37:28 437.365/2234.400
O/OREOS (USA 219) 06 Feb 18:06:23 18:10:47 44° 61° (ENE) 18:15:11 437.305
LilacSat-2 06 Feb 18:06:52 18:10:38 56° 259° (W) 18:14:25 437.200
ISS 06 Feb 18:23:03 18:26:15 61° 333° (NNW) 18:29:29 145.825
MOZHAYETS 4 06 Feb 18:24:55 18:25:10 10° 303° (WNW) 18:25:26
BEESAT 3 06 Feb 18:25:36 18:29:34 70° 121° (ESE) 18:33:33 437.485
CUTE 1.7 + AOD 2 06 Feb 18:26:38 18:28:33 13° 61° (ENE) 18:30:28 437.475
AO-85 06 Feb 18:32:31 18:36:26 20° 34° (NE) 18:40:10 145.980
GONETS M04 06 Feb 18:33:43 18:38:58 17° 56° (NE) 18:44:12
CUTE-I 06 Feb 18:38:07 18:42:50 32° 264° (W) 18:47:35 437.470
SEEDS 06 Feb 18:39:37 18:41:39 13° 62° (ENE) 18:43:41 437.485
CINEMA 3 06 Feb 18:40:27 18:43:27 17° 64° (ENE) 18:46:22 145.822/145.860
BEESAT 2 06 Feb 18:42:55 18:46:54 69° 122° (ESE) 18:50:56 435.950
Cubesat XI-IV 06 Feb 18:51:09 18:55:27 25° 266° (W) 18:59:50 437.490
CUBESAT XI-V 06 Feb 18:51:37 18:55:59 38° 291° (WNW) 19:00:19 437.345
GOMX 1 06 Feb 18:52:27 18:57:55 78° 258° (WSW) 19:03:12 467.674
DOVE 4 06 Feb 18:53:03 18:58:09 61° 73° (ENE) 19:03:01 437.250
HO-68 06 Feb 18:54:15 19:01:01 47° 64° (ENE) 19:07:49 435.675
AAUSAT CUBESAT 2 06 Feb 19:04:19 19:06:40 15° 63° (ENE) 19:09:02 437.432
BRITE-PL 06 Feb 19:05:35 19:10:48 36° 265° (W) 19:15:57 437.365/2234.400
Cosmos 2504 06 Feb 19:08:04 19:12:02 14° 288° (WNW) 19:15:56 435.465 / 435.565
CANX-2 06 Feb 19:08:40 19:12:34 38° 70° (ENE) 19:16:29 2200.000
CUBEBUG 2 06 Feb 19:13:58 19:16:00 13° 62° (ENE) 19:18:01 437.445
RS-15 06 Feb 19:16:43 19:27:52 41° 32° (NNE) 19:39:16 29.354- 29.394
UWE-3 06 Feb 19:23:16 19:24:49 12° 61° (ENE) 19:26:23 435.000/436.395/437.385
PCSat 06 Feb 19:25:08 19:29:25 23° 42° (NE) 19:33:41 145.827
STRAND 1 06 Feb 19:37:36 19:42:47 80° 104° (ESE) 19:47:57 437.568
Oscar 11 06 Feb 19:38:23 19:40:59 16° 63° (ENE) 19:43:35 145.826/435.025
O/OREOS (USA 219) 06 Feb 19:46:30 19:49:53 21° 259° (WSW) 19:53:16 437.305
CUTE 1.7 + AOD 2 06 Feb 19:59:41 20:03:51 67° 259° (W) 20:08:04 437.475
ISS 06 Feb 20:00:29 20:03:10 23° 352° (N) 20:05:51 145.825
BEESAT 3 06 Feb 20:05:08 20:07:46 17° 321° (NW) 20:10:25 437.485
COMPASS 1 06 Feb 20:05:16 20:09:24 79° 77° (ENE) 20:13:35 437.405
AIST 2 06 Feb 20:08:44 20:12:50 58° 121° (ESE) 20:16:57 435.215
AO-85 06 Feb 20:12:29 20:17:45 89° 241° (WSW) 20:22:32 145.980
SEEDS 06 Feb 20:12:43 20:16:51 63° 259° (WSW) 20:21:02 437.485
CINEMA 3 06 Feb 20:15:35 20:20:14 56° 260° (W) 20:24:41 145.822/145.860
BEESAT 2 06 Feb 20:22:32 20:25:14 17° 321° (NW) 20:27:58 435.950
ZACube-1 06 Feb 20:23:17 20:27:06 33° 70° (ENE) 20:30:52 437.345
GONETS M04 06 Feb 20:28:45 20:37:34 73° 79° (E) 20:46:23
PRISM 06 Feb 20:29:31 20:33:45 85° 285° (WNW) 20:37:55 437.425
Cosmos 2499 06 Feb 20:31:00 20:38:46 36° 68° (ENE) 20:46:01 435.465 / 435.565
DOVE 4 06 Feb 20:32:46 20:36:10 18° 269° (W) 20:39:29 437.250
FUNcube-1 06 Feb 20:34:07 20:38:07 41° 71° (ENE) 20:42:03 145.935
GOMX 1 06 Feb 20:35:45 20:36:42 10° 274° (W) 20:37:39 467.674
AAUSAT CUBESAT 2 06 Feb 20:37:42 20:41:45 54° 260° (W) 20:45:50 437.432
HO-68 06 Feb 20:42:19 20:48:50 37° 263° (W) 20:55:26 435.675
CANX-2 06 Feb 20:45:27 20:48:34 20° 267° (W) 20:51:42 2200.000
DELFI C3 06 Feb 20:45:56 20:49:39 40° 71° (ENE) 20:53:25 145.870
CUBEBUG 2 06 Feb 20:47:47 20:52:09 68° 259° (W) 20:56:24 437.445
UWE-3 06 Feb 20:56:26 21:00:45 75° 257° (WSW) 21:04:59 435.000/436.395/437.385
PCSat 06 Feb 21:07:56 21:13:22 71° 242° (WSW) 21:18:45 145.827
Oscar 11 06 Feb 21:12:29 21:16:42 55° 260° (W) 21:20:56 145.826/435.025
HUMSAT D 06 Feb 21:13:50 21:17:34 35° 70° (ENE) 21:21:18 437.325/437.525
STRAND 1 06 Feb 21:18:20 21:21:18 16° 302° (WNW) 21:24:16 437.568
DX 1 06 Feb 21:20:54 21:22:28 12° 59° (ENE) 21:24:01 434.975-435.025
RS-15 06 Feb 21:29:34 21:41:45 83° 239° (WSW) 21:54:05 29.354- 29.394
ISS 06 Feb 21:37:30 21:40:19 26° 13° (NNE) 21:43:07 145.825
50 SAT 06 Feb 21:43:24 21:45:50 17° 65° (ENE) 21:48:15 437.505
AIST 2 06 Feb 21:48:34 21:51:41 20° 320° (NW) 21:54:49 435.215
UNISAT 6 06 Feb 21:51:44 21:54:47 19° 93° (E) 21:57:51 437.425
AO-85 06 Feb 21:55:25 21:57:20 12° 256° (WSW) 21:59:12 145.980
VELOX 1 06 Feb 21:59:57 22:03:38 26° 66° (ENE) 22:07:19 145.980
ZACube-1 06 Feb 22:00:08 22:03:28 22° 266° (W) 22:06:47 437.345
FUNcube-1 06 Feb 22:11:39 22:14:33 18° 267° (W) 22:17:27 145.935
AIST 1 06 Feb 22:13:48 22:18:12 73° 80° (E) 22:22:31
AISAT 06 Feb 22:15:24 22:19:32 38° 69° (ENE) 22:23:41 437.250
DELFI C3 06 Feb 22:22:10 22:24:46 17° 268° (W) 22:27:24 145.870
ESTCUBE 1 06 Feb 22:22:33 22:26:53 47° 71° (ENE) 22:31:15 437.505/2401.250
Cosmos 2499 06 Feb 22:24:01 22:32:13 53° 271° (W) 22:39:50 435.465 / 435.565
GONETS M04 06 Feb 22:26:46 22:33:31 26° 280° (W) 22:40:18
ANTELSAT 06 Feb 22:35:59 22:40:13 53° 101° (E) 22:44:30 437.575/2403.000
TIGRISAT 06 Feb 22:44:08 22:48:23 63° 101° (E) 22:52:42 435.000
CUBEBUG 1 06 Feb 22:45:23 22:49:46 60° 73° (ENE) 22:54:10 437.445
POLYITAN 1 06 Feb 22:47:51 22:50:46 18° 93° (E) 22:53:40 437.675
UKube-1 06 Feb 22:48:06 22:52:25 74° 74° (ENE) 22:56:46 .
QB50P2 06 Feb 22:48:37 22:51:38 19° 93° (E) 22:54:39 145.880/145.840
HUMSAT D 06 Feb 22:50:17 22:53:20 20° 267° (W) 22:56:23 437.325/437.525
DX 1 06 Feb 22:53:37 22:58:00 83° 255° (WSW) 23:02:25 434.975-435.025
SPROUT 06 Feb 23:04:03 23:07:57 34° 69° (ENE) 23:11:51 437.525
BUGSAT 1 06 Feb 23:11:32 23:13:55 15° 91° (E) 23:16:16 437.445
ISS 06 Feb 23:13:49 23:17:04 89° 227° (SW) 23:20:19 145.825
50 SAT 06 Feb 23:16:10 23:19:36 36° 262° (W) 23:23:04 437.505
POPSAT HIP 1 06 Feb 23:18:39 23:22:35 37° 98° (E) 23:26:28 437.405
NANOSAT C BR1 06 Feb 23:25:35 23:29:36 43° 99° (E) 23:33:36 145.865
TISAT 1 06 Feb 23:27:24 23:30:48 24° 66° (ENE) 23:34:13 437.305
UNISAT 6 06 Feb 23:27:37 23:31:42 43° 289° (WNW) 23:35:50 437.425
DUCHIFAT 1 06 Feb 23:28:38 23:32:40 44° 99° (E) 23:36:39 145.980
QB50P1 06 Feb 23:31:32 23:35:39 52° 100° (E) 23:39:45 145.935-145.965
VELOX 1 06 Feb 23:35:55 23:39:58 34° 263° (W) 23:44:04 145.980
RS-15 06 Feb 23:43:50 23:52:26 23° 261° (W) 00:01:06 29.354- 29.394
AISAT 06 Feb 23:52:36 23:56:08 23° 266° (W) 23:59:41 437.250
AIST 1 06 Feb 23:54:19 23:55:07 10° 278° (W) 23:55:57
ITUPSAT 1 06 Feb 23:58:33 00:00:21 12° 57° (ENE) 00:02:11 437.325
ESTCUBE 1 07 Feb 00:00:46 00:03:57 19° 268° (W) 00:07:09 437.505/2401.250
BEESAT 07 Feb 00:08:22 00:11:04 15° 60° (ENE) 00:13:47 436.000
ANTELSAT 07 Feb 00:13:52 00:16:33 16° 297° (WNW) 00:19:14 437.575/2403.000
TIGRISAT 07 Feb 00:22:21 00:24:37 14° 298° (WNW) 00:26:54 435.000
POLYITAN 1 07 Feb 00:22:49 00:26:47 42° 289° (WNW) 00:30:44 437.675
QB50P2 07 Feb 00:23:41 00:27:38 40° 289° (WNW) 00:31:33 145.880/145.840
CUBEBUG 1 07 Feb 00:24:05 00:26:27 14° 270° (W) 00:28:50 437.445
UKube-1 07 Feb 00:27:47 00:29:00 11° 271° (W) 00:30:13 .
CUSAT 1 07 Feb 00:32:26 00:36:21 15° 76° (ENE) 00:40:19 437.405
SPROUT 07 Feb 00:40:33 00:44:00 23° 266° (W) 00:47:28 437.525
BUGSAT 1 07 Feb 00:45:40 00:49:34 46° 289° (WNW) 00:53:26 437.445
ISS 07 Feb 00:51:38 00:53:05 12° 228° (SW) 00:54:31 145.825
POPSAT HIP 1 07 Feb 00:54:59 00:58:10 21° 295° (WNW) 01:01:19 437.405
SWISSCUBE 07 Feb 00:58:00 01:02:31 46° 70° (ENE) 01:07:06 437.505
NANOSAT C BR1 07 Feb 01:02:09 01:05:03 18° 296° (WNW) 01:07:57 145.865
TISAT 1 07 Feb 01:02:31 01:06:20 32° 263° (W) 01:10:11 437.305
DUCHIFAT 1 07 Feb 01:05:13 01:08:03 18° 296° (WNW) 01:10:53 145.980
BEESAT 3 07 Feb 01:05:45 01:07:17 12° 34° (NNE) 01:08:48 437.485
QB50P1 07 Feb 01:08:29 01:11:02 16° 297° (WNW) 01:13:35 145.935-145.965
Cosmos 2491 07 Feb 01:18:29 01:25:33 26° 64° (ENE) 01:32:35 435.465 / 435.565
Oscar 19 07 Feb 01:19:07 01:23:56 39° 98° (E) 01:28:42 437.125/150
Gurwin Techsat 1B 07 Feb 01:23:03 01:26:28 17° 90° (E) 01:29:50 435.225
BEESAT 2 07 Feb 01:23:36 01:25:11 12° 34° (NNE) 01:26:47 435.950
ITUPSAT 1 07 Feb 01:32:41 01:37:27 88° 81° (E) 01:42:17 437.325
JAS-2 07 Feb 01:42:35 01:48:10 44° 97° (E) 01:53:14 435.910
BEESAT 07 Feb 01:43:33 01:48:18 72° 258° (WSW) 01:53:05 436.000
CUSAT 1 07 Feb 02:09:29 02:17:12 68° 95° (E) 02:25:16 437.405
MOZHAYETS 4 07 Feb 02:12:53 02:15:20 14° 61° (ENE) 02:17:48
YUBILEINY 07 Feb 02:14:02 02:20:00 21° 77° (ENE) 02:25:59 435.215
DANDE 07 Feb 02:14:22 02:21:27 47° 89° (E) 02:29:23 436.750
ITAMSAT 1 07 Feb 02:20:28 02:25:01 29° 95° (E) 02:29:32 435.822/435.867
STARS 07 Feb 02:34:45 02:38:40 32° 68° (ENE) 02:42:35 437.465
AO-7 07 Feb 02:35:12 02:40:01 16° 88° (E) 02:44:47 29.400- 29.500
SWISSCUBE 07 Feb 02:37:00 02:40:33 21° 267° (W) 02:44:10 437.505
BEESAT 3 07 Feb 02:41:49 02:45:48 69° 53° (NE) 02:49:43 437.485
KKS-1 07 Feb 02:42:01 02:46:28 68° 74° (ENE) 02:50:55 437.445
AIST 2 07 Feb 02:51:53 02:53:28 12° 32° (NNE) 02:55:03 435.215
Oscar 19 07 Feb 02:58:45 03:03:06 29° 295° (WNW) 03:07:26 437.125/150
BEESAT 2 07 Feb 02:59:51 03:03:51 69° 54° (NE) 03:07:49 435.950
Gurwin Techsat 1B 07 Feb 03:01:36 03:06:54 67° 287° (WNW) 03:12:10 435.225
Cosmos 2491 07 Feb 03:14:35 03:23:18 75° 266° (W) 03:32:01 435.465 / 435.565
ITUPSAT 1 07 Feb 03:15:08 03:15:59 10° 273° (W) 03:16:49 437.325
PHONESAT 2.4 07 Feb 03:24:48 03:27:42 29° 165° (SSE) 03:30:36 2401.200-2431.200
JAS-2 07 Feb 03:28:04 03:33:02 28° 298° (WNW) 03:37:34 435.910
MOZHAYETS 4 07 Feb 03:47:25 03:51:57 69° 258° (WSW) 03:56:33
M-CUBED/EXP-1 PRIME 07 Feb 03:51:23 03:53:41 17° 100° (E) 03:56:03 437.505
CUSAT 1 07 Feb 03:53:12 04:00:06 31° 295° (WNW) 04:07:07 437.405
DANDE 07 Feb 03:57:13 04:04:28 45° 291° (WNW) 04:12:32 436.750
HORYU 2 07 Feb 03:59:11 04:02:39 22° 94° (E) 04:06:07 437.375
ITAMSAT 1 07 Feb 03:59:43 04:04:33 38° 293° (WNW) 04:09:22 435.822/435.867
Cosmos 2504 07 Feb 04:00:28 04:06:26 21° 77° (ENE) 04:12:33 435.465 / 435.565
AUBIESAT-1 07 Feb 04:04:00 04:06:37 20° 101° (E) 04:09:19 437.475
YUBILEINY 07 Feb 04:06:48 04:15:36 87° 280° (W) 04:24:30 435.215
STARS 07 Feb 04:11:21 04:15:03 26° 265° (W) 04:18:46 437.465
CUBESAT XI-V 07 Feb 04:19:26 04:23:27 29° 67° (ENE) 04:27:31 437.345
BEESAT 3 07 Feb 04:21:32 04:23:00 12° 251° (WSW) 04:24:28 437.485
KKS-1 07 Feb 04:21:35 04:23:30 13° 270° (W) 04:25:27 437.445
AO-7 07 Feb 04:25:40 04:34:04 79° 107° (ESE) 04:42:23 29.400- 29.500
AIST 2 07 Feb 04:28:42 04:32:49 63° 52° (NE) 04:36:54 435.215
BEESAT 2 07 Feb 04:39:39 04:41:12 12° 251° (WSW) 04:42:43 435.950
Gurwin Techsat 1B 07 Feb 04:44:46 04:45:51 11° 306° (NW) 04:46:57 435.225
PHONESAT 2.4 07 Feb 05:01:32 05:04:39 41° 182° (S) 05:07:45 2401.200-2431.200
Cosmos 2491 07 Feb 05:14:08 05:18:32 15° 286° (WNW) 05:22:57 435.465 / 435.565
CUTE-I 07 Feb 05:15:12 05:17:13 12° 87° (E) 05:19:14 437.470
STRAND 1 07 Feb 05:18:00 05:21:32 19° 60° (ENE) 05:25:05 437.568
M-CUBED/EXP-1 PRIME 07 Feb 05:25:31 05:28:25 28° 295° (WNW) 05:31:24 437.505
Cubesat XI-IV 07 Feb 05:26:51 05:30:05 16° 90° (E) 05:33:18 437.490
SO-50 07 Feb 05:28:26 05:32:52 35° 116° (ESE) 05:37:22 436.795
HORYU 2 07 Feb 05:35:14 05:39:21 38° 291° (WNW) 05:43:27 437.375
AUBIESAT-1 07 Feb 05:38:24 05:41:13 25° 296° (WNW) 05:44:07 437.475
LilacSat-2 07 Feb 05:40:12 05:42:06 13° 91° (E) 05:44:00 437.200
DANDE 07 Feb 05:47:52 05:49:55 11° 313° (NW) 05:52:01 436.750
Cosmos 2504 07 Feb 05:50:04 05:58:36 87° 279° (W) 06:07:34 435.465 / 435.565
CUBESAT XI-V 07 Feb 05:56:33 06:00:46 32° 264° (W) 06:05:00 437.345
YUBILEINY 07 Feb 06:07:39 06:13:48 21° 301° (WNW) 06:20:03 435.215
AIST 2 07 Feb 06:08:40 06:10:49 14° 250° (WSW) 06:12:57 435.215
AO-7 07 Feb 06:19:23 06:26:03 28° 308° (NW) 06:32:41 29.400- 29.500
PHONESAT 2.4 07 Feb 06:38:50 06:41:34 24° 198° (SSW) 06:44:17 2401.200-2431.200
CUTE-I 07 Feb 06:52:35 06:58:00 89° 103° (ESE) 07:03:23 437.470
DOVE 4 07 Feb 06:52:48 06:54:30 12° 88° (E) 06:56:11 437.250
GOMX 1 07 Feb 06:53:54 06:57:43 26° 93° (E) 07:01:19 467.674
